Weather History for Escanaba, MI

Change the Weather History Date:

Wednesday, December 26, 2012

  Actual Average Record
Temperature  
Mean Temperature 16 °F -  
Max Temperature 26 °F 22 °F 39 °F (2011)
Min Temperature 5 °F 7 °F -14 °F (1990)
Degree Days  
Heating Degree Days 50    
Moisture  
Dew Point 13 °F    
Average Humidity 78    
Maximum Humidity 86    
Minimum Humidity 69    
Precipitation  
Precipitation 0.00 in - - ()
Sea Level Pressure  
Sea Level Pressure 30.27 in    
Wind  
Wind Speed 5 mph (North)    
Max Wind Speed 12 mph    
Max Gust Speed 20 mph    
Visibility 10 miles    
Events      
Averages and records for this station are not official NWS values.
T = Trace of Precipitation, MM = Missing Value Source: NWS Daily Summary

Daily Weather History Graph

Daily Weather History Graph

Search for Another Location

Airport:

Trip Planner

Search our weather history database for the weather conditions in past years. The results will help you decide how hot, cold, wet, or windy it might be!

Date:

Astronomy

Dec. 26, 2012 Rise Set
Actual Time 8:28 AM EST 5:10 PM EST
Civil Twilight 7:54 AM EST 5:44 PM EST
Nautical Twilight 7:16 AM EST 6:22 PM EST
Astronomical Twilight 6:40 AM EST 6:58 PM EST
Moon 4:04 PM EST (12/26) 6:50 AM EST (12/26)
Length of Visible Light 9h 50m
Length of Day
8h 41m
Waxing Gibbous, 97% of the Moon is Illuminated
Dec 26
Waxing Gibbous
Dec 28
Full
Jan 4
Last Quarter
Jan 11
New
Jan 18
First Quarter

Hourly Weather History & Observations

Time (EST) Temp. Windchill Dew Point Humidity Pressure Visibility Wind Dir Wind Speed Gust Speed Precip Events Conditions
12:15 AM 14.0 °F 2.9 °F 10.4 °F 86% 30.39 in 10.0 mi NNW 8.1 mph - N/A   Clear
12:35 AM 12.2 °F 4.3 °F 8.6 °F 85% 30.39 in 10.0 mi NNW 4.6 mph - N/A   Clear
12:55 AM 12.2 °F 1.7 °F 8.6 °F 85% 30.38 in 10.0 mi NNW 6.9 mph - N/A   Clear
1:15 AM 12.2 °F 2.9 °F 6.8 °F 79% 30.38 in 10.0 mi North 5.8 mph - N/A   Clear
1:35 AM 12.2 °F 1.7 °F 6.8 °F 79% 30.37 in 10.0 mi NNW 6.9 mph - N/A   Clear
1:55 AM 12.2 °F 2.9 °F 6.8 °F 79% 30.37 in 10.0 mi NNW 5.8 mph - N/A   Clear
2:15 AM 10.4 °F -0.4 °F 6.8 °F 85% 30.37 in 10.0 mi NNW 6.9 mph - N/A   Clear
2:35 AM 10.4 °F -0.4 °F 5.0 °F 79% 30.37 in 10.0 mi NNW 6.9 mph - N/A   Clear
2:55 AM 10.4 °F -1.5 °F 5.0 °F 79% 30.37 in 10.0 mi NNW 8.1 mph - N/A   Clear
3:15 AM 8.6 °F 2.0 °F 3.2 °F 79% 30.37 in 10.0 mi NNW 3.5 mph - N/A   Clear
3:35 AM 6.8 °F - 3.2 °F 85% 30.37 in 10.0 mi Calm Calm - N/A   Clear
3:55 AM 6.8 °F -0.1 °F 1.4 °F 79% 30.37 in 10.0 mi NW 3.5 mph - N/A   Clear
4:15 AM 5.0 °F -4.1 °F -0.4 °F 78% 30.36 in 10.0 mi NNW 4.6 mph - N/A   Clear
4:35 AM 6.8 °F -2.0 °F 3.2 °F 85% 30.36 in 10.0 mi NNW 4.6 mph - N/A   Clear
4:55 AM 6.8 °F -2.0 °F 1.4 °F 79% 30.35 in 10.0 mi NW 4.6 mph - N/A   Clear
5:15 AM 6.8 °F - -0.4 °F 72% 30.35 in 10.0 mi Calm Calm - N/A   Clear
5:35 AM 6.8 °F - 1.4 °F 79% 30.34 in 10.0 mi Calm Calm - N/A   Mostly Cloudy
5:55 AM 8.6 °F 2.0 °F 5.0 °F 85% 30.34 in 10.0 mi North 3.5 mph - N/A   Overcast
6:15 AM 8.6 °F 2.0 °F 3.2 °F 79% 30.34 in 10.0 mi NNW 3.5 mph - N/A   Overcast
6:35 AM 8.6 °F - 3.2 °F 79% 30.34 in 10.0 mi Calm Calm - N/A   Overcast
6:55 AM 10.4 °F 4.0 °F 3.2 °F 73% 30.34 in 10.0 mi North 3.5 mph - N/A   Overcast
7:15 AM 14.0 °F 5.1 °F 10.4 °F 86% 30.34 in 10.0 mi North 5.8 mph - N/A   Overcast
7:35 AM 14.0 °F 6.5 °F 10.4 °F 86% 30.34 in 10.0 mi North 4.6 mph - N/A   Overcast
7:55 AM 15.8 °F 7.2 °F 8.6 °F 73% 30.33 in 10.0 mi North 5.8 mph - N/A   Overcast
8:15 AM 15.8 °F 7.2 °F 10.4 °F 79% 30.32 in 10.0 mi North 5.8 mph - N/A   Overcast
8:35 AM 15.8 °F 5.1 °F 10.4 °F 79% 30.31 in 10.0 mi North 8.1 mph - N/A   Mostly Cloudy
8:55 AM 15.8 °F 5.1 °F 10.4 °F 79% 30.30 in 10.0 mi North 8.1 mph - N/A   Partly Cloudy
9:15 AM 15.8 °F 7.2 °F 10.4 °F 79% 30.29 in 10.0 mi North 5.8 mph - N/A   Clear
9:35 AM 15.8 °F 10.2 °F 10.4 °F 79% 30.30 in 10.0 mi North 3.5 mph - N/A   Clear
9:55 AM 15.8 °F 8.6 °F 10.4 °F 79% 30.30 in 10.0 mi North 4.6 mph - N/A   Partly Cloudy
10:15 AM 17.6 °F 9.3 °F 12.2 °F 79% 30.29 in 10.0 mi North 5.8 mph - N/A   Mostly Cloudy
10:35 AM 19.4 °F 11.5 °F 12.2 °F 74% 30.28 in 10.0 mi North 5.8 mph - N/A   Mostly Cloudy
10:55 AM 21.2 °F 16.4 °F 14.0 °F 74% 30.29 in 10.0 mi NNE 3.5 mph - N/A   Overcast
11:15 AM 21.2 °F 12.6 °F 15.8 °F 80% 30.27 in 10.0 mi North 6.9 mph - N/A   Overcast
11:35 AM 23.0 °F 15.8 °F 17.6 °F 80% 30.28 in 10.0 mi NE 5.8 mph - N/A   Overcast
11:55 AM 24.8 °F 19.1 °F 15.8 °F 69% 30.27 in 10.0 mi NE 4.6 mph - N/A   Overcast
12:15 PM 24.8 °F 17.9 °F 15.8 °F 69% 30.27 in 10.0 mi NNE 5.8 mph - N/A   Overcast
12:35 PM 24.8 °F 20.5 °F 17.6 °F 74% 30.27 in 10.0 mi NNE 3.5 mph - N/A   Overcast
12:55 PM 24.8 °F 17.9 °F 17.6 °F 74% 30.25 in 10.0 mi NNE 5.8 mph - N/A   Overcast
1:15 PM 24.8 °F 17.9 °F 15.8 °F 69% 30.24 in 10.0 mi NE 5.8 mph - N/A   Overcast
1:35 PM 24.8 °F 19.1 °F 17.6 °F 74% 30.24 in 10.0 mi NE 4.6 mph - N/A   Overcast
1:55 PM 24.8 °F 19.1 °F 17.6 °F 74% 30.23 in 10.0 mi NNE 4.6 mph - N/A   Overcast
2:15 PM 24.8 °F 17.9 °F 17.6 °F 74% 30.22 in 10.0 mi North 5.8 mph - N/A   Overcast
2:35 PM 24.8 °F 19.1 °F 17.6 °F 74% 30.21 in 10.0 mi NNE 4.6 mph - N/A   Overcast
2:55 PM 24.8 °F 19.1 °F 17.6 °F 74% 30.22 in 10.0 mi North 4.6 mph - N/A   Overcast
3:15 PM 26.6 °F 21.2 °F 19.4 °F 74% 30.21 in 10.0 mi North 4.6 mph - N/A   Overcast
3:35 PM 26.6 °F 22.6 °F 17.6 °F 69% 30.22 in 10.0 mi NNW 3.5 mph - N/A   Overcast
3:55 PM 26.6 °F 22.6 °F 17.6 °F 69% 30.22 in 10.0 mi NNW 3.5 mph - N/A   Overcast
4:15 PM 24.8 °F 19.1 °F 19.4 °F 80% 30.22 in 10.0 mi NNW 4.6 mph - N/A   Overcast
4:35 PM 24.8 °F 17.9 °F 17.6 °F 74% 30.22 in 10.0 mi NNW 5.8 mph - N/A   Overcast
4:55 PM 24.8 °F 19.1 °F 19.4 °F 80% 30.22 in 10.0 mi NW 4.6 mph - N/A   Overcast
5:15 PM 24.8 °F 20.5 °F 19.4 °F 80% 30.22 in 10.0 mi NW 3.5 mph - N/A   Overcast
5:35 PM 24.8 °F 17.9 °F 19.4 °F 80% 30.21 in 10.0 mi NNW 5.8 mph - N/A   Overcast
6:15 PM 24.8 °F 19.1 °F 17.6 °F 74% 30.20 in 10.0 mi North 4.6 mph - N/A   Overcast
6:35 PM 24.8 °F 20.5 °F 19.4 °F 80% 30.21 in 10.0 mi North 3.5 mph - N/A   Overcast
6:55 PM 24.8 °F - 19.4 °F 80% 30.21 in 10.0 mi Calm Calm - N/A   Overcast
7:15 PM 24.8 °F 20.5 °F 19.4 °F 80% 30.21 in 10.0 mi North 3.5 mph - N/A   Overcast
7:35 PM 24.8 °F 20.5 °F 19.4 °F 80% 30.20 in 10.0 mi North 3.5 mph - N/A   Overcast
7:55 PM 26.6 °F 21.2 °F 19.4 °F 74% 30.20 in 10.0 mi North 4.6 mph - N/A   Overcast
8:15 PM 26.6 °F 20.0 °F 21.2 °F 80% 30.20 in 10.0 mi NNE 5.8 mph - N/A   Overcast
8:35 PM 26.6 °F 20.0 °F 19.4 °F 74% 30.19 in 10.0 mi North 5.8 mph - N/A   Overcast
8:55 PM 26.6 °F 16.2 °F 19.4 °F 74% 30.19 in 10.0 mi NNE 11.5 mph 18.4 mph N/A   Overcast
9:15 PM 26.6 °F 17.5 °F 19.4 °F 74% 30.19 in 10.0 mi NNE 9.2 mph 19.6 mph N/A   Overcast
9:35 PM 24.8 °F 16.1 °F 19.4 °F 80% 30.19 in 10.0 mi North 8.1 mph - N/A   Overcast
9:55 PM 24.8 °F 19.1 °F 19.4 °F 80% 30.18 in 7.0 mi North 4.6 mph - N/A   Overcast
10:15 PM 24.8 °F 17.9 °F 19.4 °F 80% 30.18 in 10.0 mi NNE 5.8 mph - N/A   Overcast
10:35 PM 24.8 °F 16.1 °F 19.4 °F 80% 30.18 in 10.0 mi North 8.1 mph - N/A   Overcast
10:55 PM 26.6 °F 17.5 °F 19.4 °F 74% 30.18 in 10.0 mi NNE 9.2 mph - N/A   Overcast
11:15 PM 26.6 °F 20.0 °F 19.4 °F 74% 30.18 in 10.0 mi NNE 5.8 mph - N/A   Overcast
11:35 PM 26.6 °F 19.1 °F 19.4 °F 74% 30.19 in 10.0 mi North 6.9 mph - N/A   Overcast
11:55 PM 26.6 °F 20.0 °F 19.4 °F 74% 30.18 in 10.0 mi North 5.8 mph - N/A   Overcast